Regional Weather Roundup
Issued by NWS

Home | Current Version | Previous Version | Text Only | Print | Product List | Glossary Off
Versions: 1 2 3 4 5 6 7 8 9 10 11 12 13 14 15 16 17 18 19 20 21 22 23 24 25 26 27 28 29 30 31 32 33 34 35 36 37 38 39 40 41 42 43 44 45 46 47 48 49 50

000
ASUS43 KIND 211109
RWRIN

WEATHER ROUNDUP FOR INDIANA
NATIONAL WEATHER SERVICE INDIANAPOLIS IN
600 AM EST FRI NOV 21 2014

NOTE: "FAIR" INDICATES FEW OR NO CLOUDS BELOW 12,000 FEET WITH NO
SIGNIFICANT WEATHER AND/OR OBSTRUCTIONS TO VISIBILITY.

* - STATION DOES NOT REPORT WEATHER SUCH AS PRECIPITATION OR FOG.

+ - STATION NOT QUALITY CONTROLLED BY THE NATIONAL WEATHER SERVICE.
    USE DATA WITH CAUTION...ESPECIALLY DEWPOINT AND RELATIVE
    HUMIDITY OBSERVATIONS.

INZ001>003-010>013-019-020-211200-
NORTHWEST INDIANA

CITY           SKY/WX    TMP DP  RH WIND       PRES   REMARKS
GARY /AIRPORT/ CLEAR     16   5  62 W8        30.41R WCI   5
KNOX *+        PTCLDY    10   4  78 SW6       30.40R WCI   0
LA PORTE +     CLEAR     14   9  79 SW7       30.39R WCI   4
MICHIGAN CITY+ MOCLDY    21  10  63 CALM      30.39R
MONTICELLO +   PTCLDY    10   5  80 CALM      30.41R
RENSSELAER +   PTCLDY    10   7  85 CALM      30.42R
VALPARAISO     CLEAR     12   3  67 W6        30.40R WCI   3

$$

LMZ046-743>745-211200-
SOUTHERN LAKE MICHIGAN

STATION/POSITION TIME  TEMP WIND        PRES
                       AIR  DIR/SP/G
                 (UTC) (F)  (DEG/KT/KT) (MB)
MICHIGAN CITY    1100   23  300/  9/ 12   N/A

$$

INZ004-005-014>016-021>024-211200-
NORTH CENTRAL INDIANA

CITY           SKY/WX    TMP DP  RH WIND       PRES   REMARKS
GOSHEN         CLEAR     14   9  80 S5        30.36R WCI   6
LOGANSPORT +   PTCLDY     9   5  85 S3        30.41R
PERU/GRISSOM   PTCLDY     8   6  92 SW3       30.39R
ROCHESTER +    CLEAR     16   9  73 W7        30.40R WCI   6
SOUTH BEND     CLOUDY    21  12  68 CALM      30.38R
WARSAW +       CLEAR     12   7  79 SW3       30.37R

$$

INZ006>009-017-018-025>027-211200-
NORTHEAST INDIANA

CITY           SKY/WX    TMP DP  RH WIND       PRES   REMARKS
ANGOLA *+      PTCLDY    16  12  86 CALM      30.34R
AUBURN +       CLEAR     14   7  73 SW3       30.37R
FORT WAYNE     CLEAR     10   4  76 W6        30.39R WCI   0
HUNTINGTON +   CLEAR     12   6  77 W3        30.39R

$$

INZ028-029-035-036-043>045-051>053-211200-
WEST CENTRAL INDIANA

CITY           SKY/WX    TMP DP  RH WIND       PRES   REMARKS
GREENCASTLE +  CLEAR     12   9  85 CALM      30.42R
LAFAYETTE      PTCLDY     8   4  83 CALM      30.43R
TERRE HAUTE    CLEAR     14   9  80 CALM      30.44R

$$

INZ030>032-037>040-046>048-054>057-064-065-211200-
CENTRAL INDIANA

CITY           SKY/WX    TMP DP  RH WIND       PRES   REMARKS
CP ATTERBURY + CLEAR     14  10  85 CALM      30.43R
FRANKFORT +    PTCLDY     7   4  86 S3        30.42R
INDIANAPOLIS   PTCLDY    14   6  70 NW3       30.40R
-EAGLE CREEK   PTCLDY    15   7  70 W5        30.40R WCI   8
KOKOMO *+      PTCLDY    10   3  72 W3        30.40R
MARION +       CLEAR     10   4  77 W5        30.40R WCI   1
MT COMFORT *+  CLEAR     12   1  62 CALM      30.41R
SHELBYVILLE    CLEAR     16   6  65 CALM      30.41R
ZIONSVILLE +   CLEAR     10   5  79 N3        30.40S

$$

INZ033-034-041-042-049-050-058-059-211200-
EAST CENTRAL INDIANA

CITY           SKY/WX    TMP DP  RH WIND       PRES   REMARKS
MUNCIE         CLEAR     13   5  70 W3        30.39R

$$

INZ060-061-067>069-081>083-085>088-211200-
SOUTHWEST INDIANA

CITY           SKY/WX    TMP DP  RH WIND       PRES   REMARKS
EVANSVILLE     CLEAR     24  16  71 NE5       30.44R WCI  18
HUNTINGBURG *+ CLEAR     18  12  79 NE7       30.43R WCI   8
WASHINGTON +   CLEAR     19  12  76 CALM      30.44R

$$

INZ062-063-066-070>080-084-089>092-211200-
SOUTH CENTRAL AND SOUTHEAST INDIANA

CITY           SKY/WX    TMP DP  RH WIND       PRES   REMARKS
BLOOMINGTON    CLEAR     13   9  84 CALM      30.42R
NORTH VERNON + CLEAR     18  12  79 CALM      30.43
SEYMOUR +      CLEAR     19   9  63 N3        30.44

$$



USA.gov is the U.S. government's official web portal to all federal, state and local government web resources and services.